Location: Peebles
(55.6412°N, 3.1714°W)
Time: 02:16:12
(UTC+01:00)

COSMOS 2251 DEB - Visible Passes

Search period start: 01 July 2022 00:00
Search period end: 11 July 2022 00:00
Orbit: 738 x 878 km, 74.2° (Epoch: 30 June)

Date Brightness Start Highest point End Pass type
(mag) Time Alt. Az. Time Alt. Az. Time Alt. Az.
01 Jul ? 03:02:13 10° ESE 03:04:42 13° E 03:07:08 10° ENE visible
04 Jul ? 03:26:23 10° SSE 03:31:20 33° ESE 03:36:10 10° NE visible
05 Jul ? 03:01:42 10° SSE 03:06:18 27° E 03:10:48 10° NE visible
06 Jul ? 02:37:11 10° SE 02:41:18 21° E 02:45:20 10° NE visible
07 Jul ? 02:12:49 10° SE 02:16:19 17° E 02:19:46 10° NE visible
08 Jul ? 01:48:46 10° ESE 01:51:22 14° E 01:53:57 10° ENE visible
08 Jul ? 03:27:46 10° SSW 03:33:18 65° ESE 03:38:39 10° NNE visible
09 Jul ? 01:25:34 10° E 01:26:27 10° E 01:27:19 10° E visible
09 Jul ? 03:02:47 10° S 03:08:11 52° ESE 03:13:26 10° NE visible
10 Jul ? 02:38:00 11° S 02:43:06 42° ESE 02:48:09 10° NE visible
